User: anonymous
Location: Fort Wayne
(41.1310°N, 85.1290°W)
Time: 20:14:52
(UTC-04:00)
Language:

Meteor 2-10 Rocket - Orbit

View from above orbital plane
View from above orbital plane
View from above satellite
View from above satellite

Ground track
Ground track

The orbit data is extracted from the following two-line orbital elements,

1 14453U 83109B   14106.37524174  .00000113  00000-0  40410-4 0  1195
2 14453 081.1682 190.9213 0105745 172.2598 257.3895 14.24481460582688
Epoch (UTC): 16 April 2014 09:00:20
Eccentricity: 0.0105745
inclination: 81.1682°
perigee height: 734 km
apogee height: 886 km
right ascension of ascending node: 190.9213°
argument of perigee: 172.2598°
revolutions per day: 14.24481460
mean anomaly at epoch: 257.3895°
orbit number at epoch: 58268

The dashed part of the orbit path shows where the satellite is in the earth's shadow,  

DLR